This demonstration page uses our WeatherBlox Daily Observations layout. Learn more.

36.17497, -115.13722

Hourly Observations for April 9, 2015

Temp ( °F °C ) Dew Point ( °F °C ) Humidity (%) Winds ( mph kmh ) Pressure ( in mb ) Visibility ( mi km ) Precip ( " mm )
12:53 am 00:53 Clear 52 11.1 11 -11.7 19 19 N 5 7 30.03 1017 10 16.0934 0 0
1:53 am 01:53 Clear 52 11.1 12 -11.1 20 20 NW 6 9 30.03 1017 10 16.0934 0 0
2:53 am 02:53 Clear 53 11.7 11 -11.7 18 18 NNE 5 7 30.04 1017 10 16.0934 0 0
3:53 am 03:53 Clear 53 11.7 11 -11.7 18 18 N 5 7 30.04 1017 10 16.0934 0 0
4:53 am 04:53 Clear 52 11.1 15 -9.4 23 23 NNW 7 11 30.04 1017 10 16.0934 0 0
5:53 am 05:53 Clear 51 10.6 16 -8.9 25 25 NNW 10 17 30.05 1018 10 16.0934 0 0
6:53 am 06:53 Sunny 52 11.1 19 -7.2 27 27 N 10 17 30.06 1018 10 16.0934 0 0
7:53 am 07:53 Sunny 55 12.8 20 -6.7 25 25 NNW 8 13 30.07 1018 10 16.0934 0 0
8:39 am 08:39 Sunny 58 14.4 19 -7.2 22 22 NNE 13 20 30 1016 10 16.0934 0 0
8:53 am 08:53 Sunny 59 15 20 -6.7 22 22 NNE 13 20 30.07 1018 10 16.0934 0 0
9:53 am 09:53 Sunny 61 16.1 19 -7.2 20 20 NE 8 13 30.08 1019 10 16.0934 0 0
10:53 am 10:53 Sunny 62 16.7 18 -7.8 18 18 Calm 30.07 1018 10 16.0934 0 0
11:53 am 11:53 Sunny 64 17.8 18 -7.8 17 17 WSW 5 7 30.04 1017 10 16.0934 0 0
12:53 pm 12:53 Sunny 68 20 15 -9.4 13 13 E 7 11 30.02 1017 10 16.0934 0 0
1:53 pm 13:53 Sunny 68 20 13 -10.6 12 12 VRB 3 6 29.99 1016 10 16.0934 0 0
2:53 pm 14:53 Sunny 70 21.1 13 -10.6 11 11 E 7 11 29.96 1015 10 16.0934 0 0
3:53 pm 15:53 Sunny 70 21.1 10 -12.2 10 10 VRB 5 7 29.93 1014 10 16.0934 0 0
4:53 pm 16:53 Sunny 70 21.1 9 -12.8 9 9 VRB 5 7 29.93 1013 10 16.0934 0 0
5:53 pm 17:53 Sunny 70 21.1 6 -14.4 8 8 SSE 5 7 29.91 1013 10 16.0934 0 0
6:53 pm 18:53 Sunny 69 20.6 7 -13.9 9 9 Calm 29.91 1013 10 16.0934 0 0
7:53 pm 19:53 Clear 68 20 7 -13.9 9 9 Calm 29.91 1013 10 16.0934 0 0
8:53 pm 20:53 Clear 66 18.9 13 -10.6 13 13 Calm 29.92 1013 10 16.0934 0 0
9:53 pm 21:53 Clear 61 16.1 19 -7.2 20 20 NNW 6 9 29.93 1014 10 16.0934 0 0
10:53 pm 22:53 Clear 59 15 18 -7.8 20 20 NW 6 9 29.94 1014 10 16.0934 0 0
11:53 pm 23:53 Clear 59 15 17 -8.3 19 19 NNW 7 11 29.93 1014 10 16.0934 0 0

Powered by AerisWeather